Torna al catalogo

BEIDOU 4

AttivoNavigazioneGEO
NORAD 36590·PAYLOAD·🇨🇳 China

Lanciato Jun 2, 2010 da Xichang Satellite Launch Center

Loading…

TLE

AggiornatoSource: Space-Track

Epoca: Sep 14, 2026, 14:10 UTC

1 36590U 10024A   26257.59087441 -.00000142  00000-0  00000-0 0  9998
2 36590   4.7239  61.0417 0005030   0.0749 224.7744  1.00273419 59660

Traccia BEIDOU 4 in tempo reale con AllMySat

Download on the App Store